IRIDIUM 40 [+]

Last updated on Wed Apr 19 2017 00:17:30 GMT+0000 (Coordinated Universal Time)

1 25041U 97069C 17107.93931766 .00035398 -10299-5 35593-3 0 9996 2 25041 86.3934 46.7296 0304418 146.7957 215.2812 15.24502246 17752

Satellite not in orbit

IRIDIUM 40 [+]